GW0761 Weather Reports


time (UTC)temp
F
wind
direction
speed
knots
gust
knots
rain 1hr
in
rain 24hr
in
rain mn
in
humidity
%
barometer
mb
20260504110606 52 276 0.0 0.0 0.00 0.00 0.00 94 1012.8
20260504082003 49 276 0.0 0.0 0.00 0.00 0.00 95 1012.8
20260504080502 48 276 0.0 0.0 0.00 0.00 0.00 95 1012.8
20260504080344 48 276 0.0 0.0 0.00 0.00 0.00 95 1012.8
20260504044900 52 276 0.0 0.0 0.00 0.00 0.00 89 1012.0
20260504043359 53 276 0.0 0.0 0.00 0.00 0.00 88 1011.8
20260504041851 54 276 0.0 0.0 0.00 0.00 0.00 87 1011.6
20260504040352 55 276 0.9 1.7 0.00 0.00 0.00 86 1011.4
20260504034851 55 314 0.0 0.9 0.00 0.00 0.00 85 1011.0
20260504033349 56 272 0.0 1.7 0.00 0.00 0.00 83 1010.6
20260504030341 57 25 0.9 6.1 0.00 0.00 0.00 80 1010.3
20260504024839 59 163 0.9 5.2 0.00 0.00 0.00 77 1009.7
20260504024039 60 269 0.0 5.2 0.00 0.00 0.00 75 1009.5
20260504021836 61 161 0.9 6.1 0.00 0.00 0.00 73 1009.3
20260504021035 63 162 0.9 4.3 0.00 0.00 0.00 70 1009.2
20260504014834 66 293 1.7 4.3 0.00 0.00 0.00 66 1009.0
20260504013331 69 287 0.9 3.5 0.00 0.00 0.00 63 1008.9
20260504011835 69 66 0.9 7.0 0.00 0.00 0.00 62 1008.9
20260504004824 70 304 1.7 6.1 0.00 0.00 0.00 60 1008.9
20260504003322 71 294 1.7 5.2 0.00 0.00 0.00 58 1008.8
20260504001820 73 293 0.9 6.1 0.00 0.00 0.00 56 1008.4
20260504001009 74 293 2.6 6.1 0.00 0.00 0.00 54 1008.6
20260503234817 75 46 0.9 3.5 0.00 0.00 0.00 53 1008.5
20260503233315 76 286 0.9 4.3 0.00 0.00 0.00 52 1008.5
20260503231813 76 258 0.9 7.0 0.00 0.00 0.00 53 1008.5
20260503231021 77 199 0.9 7.0 0.00 0.00 0.00 54 1008.6
20260503224810 76 304 1.7 7.8 0.00 0.00 0.00 53 1008.7
20260503223309 76 79 2.6 7.8 0.00 0.00 0.00 54 1009.1
20260503221807 74 77 2.6 11.3 0.00 0.00 0.00 56 1009.2
20260503220307 74 63 3.5 9.6 0.00 0.00 0.00 56 1009.3
20260503214805 74 149 3.5 7.8 0.00 0.00 0.00 57 1009.3
20260503214006 74 255 2.6 8.7 0.00 0.00 0.00 56 1009.2
20260503211801 75 214 3.5 9.6 0.00 0.00 0.00 56 1009.2
20260503210953 75 335 2.6 8.7 0.00 0.00 0.00 56 1009.2
20260503204757 75 302 1.7 5.2 0.00 0.00 0.00 55 1009.1
20260503203253 76 177 1.7 7.0 0.00 0.00 0.00 55 1009.1
20260503201751 76 41 2.6 5.2 0.00 0.00 0.00 54 1009.1
20260503200250 76 271 1.7 5.2 0.00 0.00 0.00 55 1009.2
20260503194747 76 42 0.9 6.1 0.00 0.00 0.00 55 1009.3
20260503193246 75 169 0.9 5.2 0.00 0.00 0.00 56 1009.5
20260503191743 75 190 1.7 7.8 0.00 0.00 0.00 57 1009.6
20260503190240 76 227 3.5 7.0 0.00 0.00 0.00 55 1009.7
20260503184738 79 262 2.6 6.1 0.00 0.00 0.00 51 1009.7
20260503183236 78 0 0.9 1.7 0.00 0.00 0.00 54 1009.8
20260503181734 75 300 0.0 3.5 0.00 0.00 0.00 53 1009.9
20260503180225 73 343 0.9 1.7 0.00 0.00 0.00 61 1010.0
20260503174724 69 311 0.0 0.0 0.00 0.00 0.00 72 1010.0
20260503173205 65 311 0.0 0.0 0.00 0.00 0.00 85 1010.1
20260503171703 62 333 0.0 0.0 0.00 0.00 0.00 93 1010.1
20260503170203 60 333 0.0 0.0 0.00 0.00 0.00 95 1010.4
20260503160146 53 333 0.0 0.0 0.00 0.00 0.00 97 1010.8
20260503150130 46 333 0.0 0.0 0.00 0.00 0.00 97 1011.1